| time (UTC) | temp F | wind direction | speed MPH | gust MPH | rain 1hr in | rain 24hr in | rain mn in | humidity % | barometer mb |
| 20260505213003 | 56 | 246 | 10.0 | 24.0 | 0.00 | 0.00 | 0.00 | 84 | 1011.3 |
| 20260505211505 | 56 | 217 | 14.0 | 24.0 | 0.00 | 0.00 | 0.00 | 84 | 1010.9 |
| 20260505210022 | 56 | 124 | 15.0 | 24.0 | 0.00 | 0.00 | 0.00 | 84 | 1011.1 |
| 20260505204555 | 56 | 258 | 10.0 | 23.0 | 0.00 | 0.00 | 0.00 | 84 | 1011.0 |
| 20260505203054 | 57 | 221 | 12.0 | 23.0 | 0.00 | 0.00 | 0.00 | 83 | 1011.1 |
| 20260505201603 | 57 | 271 | 11.0 | 20.0 | 0.00 | 0.00 | 0.00 | 83 | 1011.0 |
| 20260505200025 | 57 | 265 | 9.0 | 25.0 | 0.00 | 0.00 | 0.00 | 83 | 1011.1 |
| 20260505194524 | 57 | 248 | 10.0 | 22.0 | 0.00 | 0.00 | 0.00 | 83 | 1011.3 |
| 20260505193034 | 57 | 266 | 10.0 | 19.0 | 0.00 | 0.00 | 0.00 | 84 | 1011.3 |
| 20260505191608 | 57 | 124 | 11.0 | 21.0 | 0.00 | 0.00 | 0.00 | 84 | 1011.4 |
| 20260505190111 | 57 | 231 | 13.0 | 23.0 | 0.00 | 0.00 | 0.00 | 83 | 1011.5 |
| 20260505184611 | 57 | 124 | 14.0 | 25.0 | 0.00 | 0.00 | 0.00 | 83 | 1011.7 |
| 20260505183104 | 57 | 258 | 13.0 | 21.0 | 0.00 | 0.00 | 0.00 | 83 | 1011.7 |
| 20260505181555 | 57 | 124 | 12.0 | 18.0 | 0.00 | 0.00 | 0.00 | 84 | 1011.8 |
| 20260505180039 | 57 | 124 | 8.0 | 20.0 | 0.00 | 0.00 | 0.00 | 84 | 1011.9 |
| 20260505174527 | 56 | 124 | 11.0 | 21.0 | 0.00 | 0.00 | 0.00 | 84 | 1011.9 |
| 20260505173044 | 57 | 250 | 7.0 | 23.0 | 0.00 | 0.00 | 0.00 | 84 | 1011.9 |
| 20260505171552 | 56 | 124 | 11.0 | 19.0 | 0.00 | 0.00 | 0.00 | 84 | 1011.9 |
| 20260505170045 | 57 | 274 | 8.0 | 23.0 | 0.00 | 0.00 | 0.00 | 84 | 1011.9 |
| 20260505164535 | 57 | 124 | 10.0 | 23.0 | 0.00 | 0.00 | 0.00 | 84 | 1012.2 |
| 20260505163128 | 56 | 124 | 11.0 | 20.0 | 0.00 | 0.00 | 0.00 | 84 | 1012.5 |
| 20260505161559 | 56 | 204 | 9.0 | 17.0 | 0.00 | 0.00 | 0.00 | 84 | 1012.6 |
| 20260505160110 | 56 | 124 | 11.0 | 18.0 | 0.00 | 0.00 | 0.00 | 84 | 1012.8 |
| 20260505153046 | 56 | 214 | 11.0 | 18.0 | 0.00 | 0.00 | 0.00 | 84 | 1012.7 |
| 20260505151552 | 56 | 263 | 10.0 | 19.0 | 0.00 | 0.00 | 0.00 | 84 | 1012.7 |
| 20260505140129 | 55 | 223 | 9.0 | 20.0 | 0.00 | 0.00 | 0.00 | 86 | 1012.4 |
| 20260505130106 | 54 | 256 | 9.0 | 18.0 | 0.00 | 0.00 | 0.00 | 87 | 1012.6 |
| 20260505124605 | 54 | 260 | 9.0 | 19.0 | 0.00 | 0.00 | 0.00 | 86 | 1012.6 |
| 20260505123011 | 55 | 124 | 6.0 | 13.0 | 0.00 | 0.00 | 0.00 | 86 | 1012.5 |
| 20260505121600 | 54 | 268 | 7.0 | 16.0 | 0.00 | 0.00 | 0.00 | 86 | 1012.3 |
| 20260505120006 | 54 | 124 | 6.0 | 16.0 | 0.00 | 0.00 | 0.00 | 87 | 1012.3 |
| 20260505114557 | 54 | 124 | 8.0 | 16.0 | 0.00 | 0.00 | 0.00 | 86 | 1012.4 |
| 20260505113058 | 54 | 124 | 8.0 | 16.0 | 0.00 | 0.00 | 0.00 | 87 | 1012.3 |
| 20260505111548 | 54 | 124 | 11.0 | 17.0 | 0.00 | 0.00 | 0.00 | 87 | 1012.3 |
| 20260505101554 | 52 | 124 | 7.0 | 13.0 | 0.00 | 0.00 | 0.00 | 89 | 1012.0 |
| 20260505100050 | 52 | 124 | 6.0 | 12.0 | 0.00 | 0.00 | 0.00 | 89 | 1011.8 |
| 20260505094554 | 51 | 124 | 7.0 | 12.0 | 0.00 | 0.00 | 0.00 | 89 | 1011.9 |
| 20260505093033 | 51 | 124 | 7.0 | 14.0 | 0.00 | 0.00 | 0.00 | 89 | 1012.0 |
| 20260505091555 | 51 | 124 | 6.0 | 10.0 | 0.00 | 0.00 | 0.00 | 89 | 1011.9 |
| 20260505090048 | 51 | 124 | 5.0 | 11.0 | 0.00 | 0.00 | 0.00 | 90 | 1011.9 |
| 20260505084554 | 51 | 124 | 6.0 | 12.0 | 0.00 | 0.00 | 0.00 | 90 | 1011.9 |
| 20260505083050 | 51 | 124 | 6.0 | 11.0 | 0.00 | 0.00 | 0.00 | 90 | 1011.9 |
| 20260505081523 | 51 | 124 | 5.0 | 10.0 | 0.00 | 0.00 | 0.00 | 90 | 1012.0 |
| 20260505080013 | 51 | 262 | 6.0 | 12.0 | 0.00 | 0.00 | 0.00 | 90 | 1012.0 |
| 20260505074505 | 51 | 124 | 6.0 | 14.0 | 0.00 | 0.00 | 0.00 | 89 | 1012.1 |
| 20260505073036 | 52 | 266 | 10.0 | 16.0 | 0.00 | 0.00 | 0.00 | 89 | 1012.0 |
| 20260505071536 | 52 | 269 | 8.0 | 18.0 | 0.00 | 0.00 | 0.00 | 89 | 1011.9 |
| 20260505070050 | 52 | 124 | 8.0 | 17.0 | 0.00 | 0.00 | 0.00 | 89 | 1012.0 |
| 20260505064512 | 52 | 272 | 10.0 | 18.0 | 0.00 | 0.00 | 0.00 | 89 | 1012.0 |
| 20260505063053 | 51 | 266 | 10.0 | 19.0 | 0.00 | 0.00 | 0.00 | 90 | 1012.0 |
| 20260505061523 | 51 | 250 | 7.0 | 16.0 | 0.00 | 0.00 | 0.00 | 90 | 1012.0 |
| 20260505060106 | 51 | 272 | 9.0 | 18.0 | 0.00 | 0.00 | 0.00 | 90 | 1012.0 |
| 20260505054607 | 51 | 275 | 7.0 | 15.0 | 0.00 | 0.00 | 0.00 | 90 | 1012.1 |
| 20260505053102 | 51 | 262 | 8.0 | 16.0 | 0.00 | 0.00 | 0.00 | 90 | 1012.1 |
| 20260505051554 | 52 | 239 | 8.0 | 19.0 | 0.00 | 0.00 | 0.00 | 89 | 1012.1 |
| 20260505041550 | 51 | 124 | 7.0 | 14.0 | 0.00 | 0.00 | 0.00 | 89 | 1012.4 |
| 20260505040033 | 51 | 267 | 7.0 | 14.0 | 0.00 | 0.00 | 0.00 | 89 | 1012.5 |
| 20260505034515 | 51 | 124 | 8.0 | 14.0 | 0.00 | 0.00 | 0.00 | 89 | 1012.7 |
| 20260505033009 | 51 | 258 | 6.0 | 15.0 | 0.00 | 0.00 | 0.00 | 89 | 1012.8 |
| 20260505031539 | 51 | 273 | 6.0 | 16.0 | 0.00 | 0.00 | 0.00 | 88 | 1012.8 |
| 20260505030048 | 52 | 277 | 8.0 | 14.0 | 0.00 | 0.00 | 0.00 | 88 | 1012.9 |
| 20260505024607 | 52 | 124 | 8.0 | 14.0 | 0.00 | 0.00 | 0.00 | 88 | 1012.8 |
| 20260505023054 | 52 | 268 | 8.0 | 18.0 | 0.00 | 0.00 | 0.00 | 87 | 1012.9 |
| 20260505021521 | 52 | 269 | 10.0 | 21.0 | 0.00 | 0.00 | 0.00 | 86 | 1013.1 |
| 20260505020006 | 52 | 266 | 9.0 | 18.0 | 0.00 | 0.00 | 0.00 | 86 | 1012.7 |
| 20260505014512 | 52 | 124 | 9.0 | 20.0 | 0.00 | 0.00 | 0.00 | 85 | 1012.7 |
| 20260505013015 | 52 | 124 | 8.0 | 20.0 | 0.00 | 0.00 | 0.00 | 85 | 1012.3 |
| 20260505011517 | 53 | 124 | 10.0 | 19.0 | 0.00 | 0.00 | 0.00 | 84 | 1012.3 |
| 20260505010052 | 53 | 252 | 9.0 | 19.0 | 0.00 | 0.00 | 0.00 | 84 | 1012.1 |
| 20260505004547 | 53 | 124 | 10.0 | 20.0 | 0.00 | 0.00 | 0.00 | 83 | 1011.8 |
| 20260505003040 | 53 | 124 | 10.0 | 24.0 | 0.00 | 0.00 | 0.00 | 82 | 1011.8 |
| 20260505001543 | 53 | 124 | 11.0 | 21.0 | 0.00 | 0.00 | 0.00 | 81 | 1011.2 |
| 20260505000048 | 53 | 281 | 11.0 | 22.0 | 0.00 | 0.00 | 0.00 | 81 | 1010.9 |
| 20260504234501 | 53 | 260 | 10.0 | 18.0 | 0.00 | 0.00 | 0.00 | 81 | 1010.9 |
| 20260504233112 | 53 | 279 | 11.0 | 24.0 | 0.00 | 0.00 | 0.00 | 82 | 1010.9 |
| 20260504231504 | 53 | 272 | 11.0 | 21.0 | 0.00 | 0.00 | 0.00 | 81 | 1010.9 |
| 20260504230013 | 53 | 270 | 12.0 | 20.0 | 0.00 | 0.00 | 0.00 | 81 | 1010.8 |
| 20260504224504 | 54 | 239 | 12.0 | 21.0 | 0.00 | 0.00 | 0.00 | 80 | 1010.7 |
| 20260504223022 | 54 | 124 | 11.0 | 22.0 | 0.00 | 0.00 | 0.00 | 79 | 1010.8 |
| 20260504221501 | 54 | 124 | 10.0 | 20.0 | 0.00 | 0.00 | 0.00 | 80 | 1010.8 |
| 20260504220058 | 54 | 243 | 13.0 | 23.0 | 0.00 | 0.00 | 0.00 | 79 | 1010.7 |
| 20260504214511 | 54 | 124 | 12.0 | 23.0 | 0.00 | 0.00 | 0.00 | 80 | 1010.7 |